QLK102D YSSY-YCFS

Flight info

Callsign QLK102D
Flight time 0h 53m
Altitude 25000
Route KEVIN7/16L OLSEM Y193 BANDA J70 CFS
Aircraft DH8D/M-SDE2E3FGRY/H

Departure

Time 2026-04-18 09:58
Airport Sydney Kingsford Smith International Airport (YSSY)

Arrival

Time 2026-04-18 10:52
Airport Coffs Harbour Airport (YCFS)
Time Latitude Longitude Altitude Speed Heading
2026-04-18 09:10 -33.93264 151.17679 18 ft 0 kts 85°
2026-04-18 09:49 -33.93271 151.17683 18 ft 3 kts 195°
2026-04-18 09:49 -33.93265 151.17650 18 ft 5 kts 279°
2026-04-18 09:49 -33.93265 151.17645 18 ft 1 kts 271°
2026-04-18 09:49 -33.93274 151.17578 18 ft 8 kts 246°
2026-04-18 09:50 -33.93323 151.17580 17 ft 10 kts 173°
2026-04-18 09:50 -33.93410 151.17593 14 ft 11 kts 182°
2026-04-18 09:50 -33.93519 151.17595 10 ft 17 kts 169°
2026-04-18 09:50 -33.93617 151.17624 10 ft 11 kts 156°
2026-04-18 09:51 -33.93711 151.17676 10 ft 14 kts 165°
2026-04-18 09:51 -33.93824 151.17711 10 ft 14 kts 152°
2026-04-18 09:51 -33.93898 151.17778 12 ft 13 kts 164°
2026-04-18 09:51 -33.93988 151.17801 13 ft 17 kts 168°
2026-04-18 09:52 -33.94091 151.17828 15 ft 18 kts 169°
2026-04-18 09:52 -33.94267 151.17874 21 ft 26 kts 168°
2026-04-18 09:52 -33.94416 151.17911 26 ft 21 kts 173°
2026-04-18 09:52 -33.94546 151.17889 26 ft 16 kts 169°
2026-04-18 09:53 -33.94658 151.17918 27 ft 13 kts 168°
2026-04-18 09:53 -33.94732 151.17937 28 ft 10 kts 167°
2026-04-18 09:53 -33.94835 151.17964 28 ft 16 kts 167°
2026-04-18 09:53 -33.94931 151.17990 27 ft 16 kts 168°
2026-04-18 09:54 -33.95053 151.18021 24 ft 12 kts 167°
2026-04-18 09:54 -33.95104 151.18088 22 ft 10 kts 94°
2026-04-18 09:54 -33.95085 151.18207 22 ft 20 kts 79°
2026-04-18 09:54 -33.95057 151.18370 20 ft 19 kts 77°
2026-04-18 09:55 -33.95029 151.18523 18 ft 18 kts 78°
2026-04-18 09:55 -33.95002 151.18669 17 ft 16 kts 77°
2026-04-18 09:55 -33.94981 151.18785 17 ft 12 kts 78°
2026-04-18 09:55 -33.94989 151.18837 17 ft 5 kts 157°
2026-04-18 09:56 -33.95006 151.18843 17 ft 0 kts 168°
2026-04-18 09:57 -33.95018 151.18846 16 ft 9 kts 167°
2026-04-18 09:57 -33.95285 151.18915 14 ft 83 kts 168°
2026-04-18 09:57 -33.96104 151.19119 37 ft 145 kts 169°
2026-04-18 09:58 -33.97160 151.19383 361 ft 166 kts 168°
2026-04-18 09:58 -33.98300 151.19665 948 ft 169 kts 168°
2026-04-18 09:58 -33.99366 151.20232 1526 ft 173 kts 139°
2026-04-18 09:58 -33.99902 151.21538 2082 ft 183 kts 105°
2026-04-18 09:59 -34.00084 151.23062 2683 ft 186 kts 103°
2026-04-18 09:59 -34.00287 151.24606 3267 ft 188 kts 103°
2026-04-18 09:59 -34.00496 151.26164 3814 ft 194 kts 103°
2026-04-18 10:00 -34.00961 151.29430 4928 ft 203 kts 103°
2026-04-18 10:00 -34.01220 151.31142 5471 ft 212 kts 104°
2026-04-18 10:00 -34.01488 151.32878 6167 ft 218 kts 104°
2026-04-18 10:00 -34.01766 151.34679 6948 ft 219 kts 104°
2026-04-18 10:01 -34.02026 151.36453 7706 ft 220 kts 104°
2026-04-18 10:01 -34.02265 151.38278 8503 ft 220 kts 104°
2026-04-18 10:01 -34.02477 151.40076 9276 ft 221 kts 104°
2026-04-18 10:01 -34.02670 151.41911 10019 ft 223 kts 102°
2026-04-18 10:02 -34.02422 151.43788 10588 ft 242 kts 65°
2026-04-18 10:02 -34.01197 151.45174 11214 ft 249 kts 29°
2026-04-18 10:02 -33.99635 151.46080 11896 ft 252 kts 23°
2026-04-18 10:02 -33.98021 151.46901 12570 ft 255 kts 20°
2026-04-18 10:03 -33.96364 151.47670 13293 ft 257 kts 19°
2026-04-18 10:03 -33.94689 151.48398 13941 ft 260 kts 17°
2026-04-18 10:03 -33.92970 151.49109 14629 ft 263 kts 17°
2026-04-18 10:03 -33.91224 151.49803 15274 ft 267 kts 16°
2026-04-18 10:04 -33.89445 151.50491 15968 ft 270 kts 15°
2026-04-18 10:04 -33.87644 151.51172 16621 ft 275 kts 15°
2026-04-18 10:04 -33.85819 151.51852 17335 ft 274 kts 14°
2026-04-18 10:04 -33.83965 151.52530 17707 ft 279 kts 14°
2026-04-18 10:05 -33.82103 151.53204 18092 ft 280 kts 14°
2026-04-18 10:05 -33.80235 151.53880 18458 ft 283 kts 14°
2026-04-18 10:05 -33.78338 151.54564 18873 ft 284 kts 13°
2026-04-18 10:05 -33.76449 151.55243 19226 ft 286 kts 13°
2026-04-18 10:06 -33.74527 151.55931 19644 ft 286 kts 13°
2026-04-18 10:06 -33.72620 151.56612 20000 ft 287 kts 13°
2026-04-18 10:06 -33.70701 151.57297 20322 ft 290 kts 13°
2026-04-18 10:06 -33.68776 151.57982 20674 ft 289 kts 13°
2026-04-18 10:07 -33.66822 151.58678 20988 ft 291 kts 13°
2026-04-18 10:07 -33.64881 151.59367 21316 ft 291 kts 13°
2026-04-18 10:07 -33.62913 151.60068 21596 ft 294 kts 13°
2026-04-18 10:07 -33.60958 151.60762 21889 ft 295 kts 13°
2026-04-18 10:08 -33.58984 151.61462 22169 ft 297 kts 13°
2026-04-18 10:08 -33.57004 151.62164 22457 ft 297 kts 13°
2026-04-18 10:08 -33.55019 151.62869 22699 ft 299 kts 13°
2026-04-18 10:08 -33.53032 151.63574 22958 ft 300 kts 13°
2026-04-18 10:09 -33.50951 151.64307 22847 ft 315 kts 13°
2026-04-18 10:09 -33.48840 151.65054 23001 ft 319 kts 13°
2026-04-18 10:09 -33.46716 151.65804 23221 ft 321 kts 13°
2026-04-18 10:09 -33.44569 151.66562 23425 ft 322 kts 13°
2026-04-18 10:10 -33.42423 151.67320 23655 ft 322 kts 13°
2026-04-18 10:10 -33.40259 151.68083 23837 ft 324 kts 12°
2026-04-18 10:10 -33.38092 151.68849 24081 ft 322 kts 13°
2026-04-18 10:10 -33.35946 151.69606 24219 ft 325 kts 12°
2026-04-18 10:11 -33.33772 151.70372 24441 ft 324 kts 12°
2026-04-18 10:11 -33.31616 151.71132 24617 ft 324 kts 12°
2026-04-18 10:11 -33.29418 151.71905 24758 ft 326 kts 12°
2026-04-18 10:11 -33.27255 151.72669 24960 ft 326 kts 12°
2026-04-18 10:12 -33.25094 151.73428 25128 ft 326 kts 12°
2026-04-18 10:12 -33.22889 151.74205 25284 ft 326 kts 12°
2026-04-18 10:12 -33.20699 151.74974 25384 ft 329 kts 12°
2026-04-18 10:12 -33.18502 151.75742 25410 ft 332 kts 12°
2026-04-18 10:13 -33.16270 151.76523 25238 ft 344 kts 12°
2026-04-18 10:13 -33.14034 151.77316 25815 ft 318 kts 12°
2026-04-18 10:13 -33.11832 151.78090 25205 ft 344 kts 12°
2026-04-18 10:13 -33.09483 151.78882 25040 ft 352 kts 12°
2026-04-18 10:14 -33.07146 151.79700 25121 ft 353 kts 13°
2026-04-18 10:14 -33.04785 151.80533 25147 ft 356 kts 13°
2026-04-18 10:14 -33.02388 151.81377 25152 ft 359 kts 13°
2026-04-18 10:14 -32.99955 151.82231 25159 ft 361 kts 12°
2026-04-18 10:15 -32.97533 151.83079 25160 ft 363 kts 12°
2026-04-18 10:15 -32.95084 151.83936 25162 ft 366 kts 12°
2026-04-18 10:15 -32.92626 151.84795 25165 ft 368 kts 12°
2026-04-18 10:15 -32.90152 151.85660 25158 ft 370 kts 12°
2026-04-18 10:16 -32.87653 151.86531 25157 ft 371 kts 12°
2026-04-18 10:16 -32.85130 151.87411 25134 ft 373 kts 12°
2026-04-18 10:16 -32.82655 151.88274 25148 ft 374 kts 12°
2026-04-18 10:16 -32.80131 151.89156 25151 ft 374 kts 12°
2026-04-18 10:17 -32.77644 151.90022 25157 ft 375 kts 12°
2026-04-18 10:17 -32.75143 151.90892 25157 ft 375 kts 12°
2026-04-18 10:17 -32.72612 151.91772 25157 ft 375 kts 12°
2026-04-18 10:17 -32.70124 151.92638 25157 ft 376 kts 12°
2026-04-18 10:18 -32.67586 151.93520 25153 ft 376 kts 12°
2026-04-18 10:18 -32.65090 151.94386 25154 ft 376 kts 12°
2026-04-18 10:18 -32.62586 151.95256 25151 ft 376 kts 12°
2026-04-18 10:18 -32.60052 151.96135 25152 ft 376 kts 12°
2026-04-18 10:19 -32.57554 151.97000 25150 ft 376 kts 12°
2026-04-18 10:19 -32.55032 151.97873 25150 ft 376 kts 12°
2026-04-18 10:19 -32.52493 151.98752 25151 ft 377 kts 12°
2026-04-18 10:19 -32.49993 151.99617 25151 ft 377 kts 12°
2026-04-18 10:20 -32.47482 152.00484 25150 ft 377 kts 12°
2026-04-18 10:20 -32.44957 152.01355 25153 ft 377 kts 12°
2026-04-18 10:20 -32.42422 152.02231 25156 ft 377 kts 12°
2026-04-18 10:20 -32.39918 152.03095 25156 ft 378 kts 12°
2026-04-18 10:21 -32.37375 152.03970 25159 ft 378 kts 12°
2026-04-18 10:21 -32.34831 152.04849 25162 ft 378 kts 12°
2026-04-18 10:21 -32.32324 152.05711 25162 ft 378 kts 12°
2026-04-18 10:21 -32.29776 152.06589 25163 ft 379 kts 12°
2026-04-18 10:22 -32.27253 152.07459 25163 ft 379 kts 12°
2026-04-18 10:22 -32.24728 152.08327 25162 ft 379 kts 12°
2026-04-18 10:22 -32.22168 152.09204 25159 ft 379 kts 12°
2026-04-18 10:22 -32.19590 152.10089 25161 ft 379 kts 12°
2026-04-18 10:23 -32.17065 152.10956 25158 ft 379 kts 12°
2026-04-18 10:23 -32.14479 152.11844 25156 ft 379 kts 12°
2026-04-18 10:23 -32.11939 152.12715 25156 ft 379 kts 12°
2026-04-18 10:23 -32.09387 152.13588 25157 ft 379 kts 12°
2026-04-18 10:24 -32.06828 152.14465 25164 ft 378 kts 12°
2026-04-18 10:24 -32.04261 152.15343 25163 ft 378 kts 12°
2026-04-18 10:24 -32.01696 152.16222 25158 ft 378 kts 12°
2026-04-18 10:24 -31.99159 152.17090 25158 ft 379 kts 12°
2026-04-18 10:25 -31.96606 152.17961 25163 ft 379 kts 12°
2026-04-18 10:25 -31.94045 152.18835 25162 ft 379 kts 11°
2026-04-18 10:25 -31.91487 152.19708 25160 ft 379 kts 11°
2026-04-18 10:25 -31.88898 152.20592 25150 ft 379 kts 11°
2026-04-18 10:26 -31.86342 152.21463 25149 ft 379 kts 11°
2026-04-18 10:26 -31.83801 152.22328 25150 ft 379 kts 11°
2026-04-18 10:26 -31.81245 152.23200 25152 ft 378 kts 11°
2026-04-18 10:26 -31.78671 152.24074 25154 ft 378 kts 11°
2026-04-18 10:27 -31.76137 152.24936 25152 ft 378 kts 11°
2026-04-18 10:27 -31.73579 152.25806 25152 ft 378 kts 11°
2026-04-18 10:27 -31.71009 152.26678 25151 ft 378 kts 11°
2026-04-18 10:27 -31.68485 152.27534 25153 ft 378 kts 11°
2026-04-18 10:28 -31.65899 152.28412 25150 ft 378 kts 11°
2026-04-18 10:28 -31.63351 152.29275 25153 ft 378 kts 11°
2026-04-18 10:28 -31.60816 152.30135 25150 ft 378 kts 11°
2026-04-18 10:28 -31.58240 152.31010 25146 ft 378 kts 11°
2026-04-18 10:29 -31.55717 152.31860 25149 ft 378 kts 11°
2026-04-18 10:29 -31.53160 152.32727 25147 ft 378 kts 11°
2026-04-18 10:29 -31.50608 152.33586 25148 ft 378 kts 11°
2026-04-18 10:29 -31.48045 152.34450 25146 ft 378 kts 11°
2026-04-18 10:30 -31.45475 152.35324 25146 ft 378 kts 11°
2026-04-18 10:30 -31.42941 152.36185 25145 ft 378 kts 11°
2026-04-18 10:30 -31.40367 152.37054 25142 ft 379 kts 11°
2026-04-18 10:30 -31.37824 152.37911 25143 ft 379 kts 11°
2026-04-18 10:31 -31.35274 152.38770 25141 ft 379 kts 11°
2026-04-18 10:31 -31.32691 152.39639 25163 ft 378 kts 11°
2026-04-18 10:31 -31.30128 152.40500 24950 ft 385 kts 11°
2026-04-18 10:31 -31.27516 152.41376 24629 ft 393 kts 11°
2026-04-18 10:32 -31.24838 152.42274 24245 ft 386 kts 11°
2026-04-18 10:32 -31.22279 152.43138 23888 ft 374 kts 11°
2026-04-18 10:32 -31.19784 152.43976 23544 ft 368 kts 11°
2026-04-18 10:32 -31.17293 152.44810 23192 ft 364 kts 11°
2026-04-18 10:33 -31.14856 152.45636 22852 ft 360 kts 11°
2026-04-18 10:33 -31.12428 152.46451 22510 ft 357 kts 11°
2026-04-18 10:33 -31.10034 152.47252 22176 ft 354 kts 11°
2026-04-18 10:33 -31.07656 152.48047 21841 ft 352 kts 11°
2026-04-18 10:34 -31.05272 152.48845 21510 ft 349 kts 11°
2026-04-18 10:34 -31.02935 152.49626 21184 ft 347 kts 11°
2026-04-18 10:34 -31.00601 152.50406 20854 ft 345 kts 11°
2026-04-18 10:34 -30.98278 152.51180 20532 ft 343 kts 11°
2026-04-18 10:35 -30.95980 152.51950 20209 ft 342 kts 11°
2026-04-18 10:35 -30.93681 152.52718 19884 ft 340 kts 11°
2026-04-18 10:35 -30.91349 152.53493 19558 ft 340 kts 12°
2026-04-18 10:35 -30.89067 152.54256 19245 ft 339 kts 12°
2026-04-18 10:36 -30.86776 152.55017 18922 ft 338 kts 12°
2026-04-18 10:36 -30.84508 152.55775 18605 ft 338 kts 12°
2026-04-18 10:36 -30.82253 152.56526 18286 ft 337 kts 12°
2026-04-18 10:36 -30.80023 152.57492 17926 ft 342 kts 28°
2026-04-18 10:37 -30.78175 152.59270 17657 ft 341 kts 43°
2026-04-18 10:37 -30.76483 152.61209 17330 ft 341 kts 44°
2026-04-18 10:37 -30.74808 152.63144 17004 ft 341 kts 44°
2026-04-18 10:37 -30.73118 152.65099 16570 ft 344 kts 44°
2026-04-18 10:38 -30.71409 152.67070 16202 ft 345 kts 44°
2026-04-18 10:38 -30.69630 152.68910 15819 ft 346 kts 38°
2026-04-18 10:38 -30.67733 152.70630 15477 ft 346 kts 37°
2026-04-18 10:38 -30.65828 152.72350 15237 ft 342 kts 37°
2026-04-18 10:39 -30.63950 152.74045 15190 ft 341 kts 37°
2026-04-18 10:39 -30.62069 152.75729 15032 ft 342 kts 37°
2026-04-18 10:39 -30.60187 152.77431 14740 ft 347 kts 37°
2026-04-18 10:39 -30.58270 152.79166 14398 ft 352 kts 37°
2026-04-18 10:40 -30.56322 152.80927 14036 ft 356 kts 37°
2026-04-18 10:40 -30.54354 152.82698 13681 ft 359 kts 37°
2026-04-18 10:40 -30.52365 152.84485 13306 ft 360 kts 37°
2026-04-18 10:40 -30.50394 152.86267 12944 ft 361 kts 38°
2026-04-18 10:41 -30.48396 152.88077 12569 ft 357 kts 37°
2026-04-18 10:41 -30.46448 152.89836 12218 ft 352 kts 37°
2026-04-18 10:41 -30.44532 152.91554 11864 ft 349 kts 37°
2026-04-18 10:41 -30.42623 152.93263 11512 ft 345 kts 37°
2026-04-18 10:42 -30.40748 152.94954 11169 ft 342 kts 37°
2026-04-18 10:42 -30.38879 152.96652 10792 ft 339 kts 37°
2026-04-18 10:42 -30.37021 152.98329 10434 ft 335 kts 37°
2026-04-18 10:42 -30.35184 152.99966 10139 ft 330 kts 37°
2026-04-18 10:43 -30.33380 153.01594 9799 ft 329 kts 37°
2026-04-18 10:43 -30.31578 153.03218 9448 ft 326 kts 37°
2026-04-18 10:43 -30.29796 153.04820 9143 ft 323 kts 37°
2026-04-18 10:43 -30.28026 153.06407 8825 ft 319 kts 36°
2026-04-18 10:44 -30.26304 153.07948 8501 ft 303 kts 36°
2026-04-18 10:44 -30.24670 153.09410 8241 ft 288 kts 36°
2026-04-18 10:44 -30.23118 153.10799 7925 ft 275 kts 36°
2026-04-18 10:44 -30.21634 153.12128 7634 ft 262 kts 36°
2026-04-18 10:45 -30.20232 153.13384 7384 ft 250 kts 36°
2026-04-18 10:45 -30.18882 153.14592 7147 ft 238 kts 36°
2026-04-18 10:45 -30.17583 153.15756 6923 ft 236 kts 35°
2026-04-18 10:45 -30.16268 153.16939 6677 ft 248 kts 36°
2026-04-18 10:46 -30.14855 153.18207 6432 ft 257 kts 36°
2026-04-18 10:46 -30.13431 153.19502 6094 ft 268 kts 38°
2026-04-18 10:46 -30.12346 153.21303 5631 ft 275 kts 72°
2026-04-18 10:46 -30.12321 153.23378 5484 ft 252 kts 108°
2026-04-18 10:47 -30.13256 153.24966 5229 ft 235 kts 141°
2026-04-18 10:47 -30.14614 153.26013 4649 ft 236 kts 150°
2026-04-18 10:47 -30.16086 153.26817 4111 ft 234 kts 167°
2026-04-18 10:47 -30.17666 153.26623 3521 ft 236 kts 202°
2026-04-18 10:48 -30.19011 153.25531 3012 ft 234 kts 216°
2026-04-18 10:48 -30.20222 153.24342 2549 ft 228 kts 217°
2026-04-18 10:48 -30.21400 153.23163 2221 ft 218 kts 217°
2026-04-18 10:48 -30.22527 153.22031 1870 ft 211 kts 217°
2026-04-18 10:49 -30.23582 153.20956 1984 ft 196 kts 217°
2026-04-18 10:49 -30.24569 153.19882 2159 ft 192 kts 219°
2026-04-18 10:49 -30.25538 153.18808 2269 ft 192 kts 219°
2026-04-18 10:49 -30.26570 153.17744 2072 ft 203 kts 217°
2026-04-18 10:50 -30.27587 153.16763 1942 ft 177 kts 214°
2026-04-18 10:50 -30.28525 153.15904 1598 ft 167 kts 214°
2026-04-18 10:50 -30.29412 153.15047 1122 ft 166 kts 217°
2026-04-18 10:50 -30.30274 153.14183 713 ft 161 kts 218°
2026-04-18 10:51 -30.31106 153.13356 442 ft 154 kts 218°
2026-04-18 10:51 -30.31888 153.12589 212 ft 141 kts 219°
2026-04-18 10:51 -30.32592 153.11885 49 ft 125 kts 219°
2026-04-18 10:51 -30.33139 153.11343 26 ft 76 kts 221°
2026-04-18 10:52 -30.33297 153.11140 26 ft 14 kts 298°
2026-04-18 10:52 -30.33235 153.11060 26 ft 11 kts 326°
2026-04-18 10:52 -30.33165 153.11079 26 ft 11 kts 41°
2026-04-18 10:52 -30.33105 153.11139 26 ft 11 kts 41°
2026-04-18 10:53 -30.33045 153.11198 26 ft 11 kts 39°
2026-04-18 10:53 -30.32973 153.11270 26 ft 16 kts 41°
2026-04-18 10:53 -30.32878 153.11365 26 ft 18 kts 41°
2026-04-18 10:53 -30.32787 153.11456 26 ft 16 kts 40°
2026-04-18 10:54 -30.32703 153.11540 26 ft 15 kts 41°
2026-04-18 10:54 -30.32623 153.11620 25 ft 14 kts 41°
2026-04-18 10:54 -30.32546 153.11697 25 ft 14 kts 40°
2026-04-18 10:54 -30.32479 153.11763 25 ft 6 kts 37°
2026-04-18 10:55 -30.32445 153.11774 24 ft 6 kts 357°
2026-04-18 10:55 -30.32403 153.11743 23 ft 8 kts 307°
2026-04-18 10:55 -30.32362 153.11681 22 ft 9 kts 287°
2026-04-18 10:55 -30.32384 153.11630 22 ft 5 kts 238°
2026-04-18 10:56 -30.32374 153.11601 22 ft 4 kts 347°
2026-04-18 10:56 -30.32358 153.11597 22 ft 0 kts 340°